This is the latest recevied weather packets stored in our database for station/object KC5TIL. If no packets are shown the sender has not sent any weather packets the latest 10 day(s).
| Time | Temp. | Humidity | Pressure | Rain* | Wind** | Luminosity | Snow |
|---|---|---|---|---|---|---|---|
| 1788456406 | 32.22° C | 66% | 1014.4 hPa | 0 mm | - | 354 W/m² | - |
| 1788456087 | 31.67° C | 66% | 1014.4 hPa | 0 mm | - | 342 W/m² | - |
| 1788455787 | 31.67° C | 67% | 1014.4 hPa | 0 mm | - | 330 W/m² | - |
| 1788455483 | 31.67° C | 66% | 1014.5 hPa | 0 mm | - | 263 W/m² | - |
| 1788455181 | 31.67° C | 68% | 1014.5 hPa | 0 mm | - | 291 W/m² | - |
| 1788454877 | 31.11° C | 69% | 1014.5 hPa | 0 mm | - | 280 W/m² | - |
| 1788454575 | 31.11° C | 69% | 1014.6 hPa | 0 mm | - | 254 W/m² | - |
| 1788454270 | 31.11° C | 70% | 1014.5 hPa | 0 mm | - | 247 W/m² | - |
| 1788453965 | 30.56° C | 72% | 1014.5 hPa | 0 mm | - | 298 W/m² | - |
| 1788453660 | 30.56° C | 72% | 1014.2 hPa | 0 mm | - | 264 W/m² | - |
| 1788453355 | 30.56° C | 71% | 1014.7 hPa | 0 mm | - | 220 W/m² | - |
| 1788453051 | 30° C | 73% | 1014.7 hPa | 0 mm | - | 239 W/m² | - |
| 1788452747 | 30° C | 74% | 1014.6 hPa | 0 mm | - | 234 W/m² | - |
| 1788452443 | 30° C | 75% | 1014.7 hPa | 0 mm | - | 198 W/m² | - |
| 1788452138 | 30° C | 74% | 1014.6 hPa | 0 mm | - | 191 W/m² | - |
| 1788451834 | 30° C | 73% | 1014.5 hPa | 0 mm | - | 212 W/m² | - |
| 1788451533 | 30° C | 75% | 1014.6 hPa | 0 mm | - | 216 W/m² | - |
| 1788451228 | 30° C | 76% | 1014.6 hPa | 0 mm | - | 239 W/m² | - |
| 1788450926 | 29.44° C | 76% | 1014.9 hPa | 0 mm | - | 211 W/m² | - |
| 1788450622 | 29.44° C | 76% | 1014.7 hPa | 0 mm | - | 223 W/m² | - |
| 1788450318 | 28.89° C | 76% | 1014.6 hPa | 0 mm | - | 228 W/m² | - |
| 1788450014 | 29.44° C | 76% | 1014.7 hPa | 0 mm | - | 199 W/m² | - |
| 1788449709 | 28.89° C | 76% | 1014.6 hPa | 0 mm | - | 183 W/m² | - |
| 1788449405 | 28.89° C | 76% | 1014.6 hPa | 0 mm | - | 190 W/m² | - |
| 1788449100 | 28.89° C | 77% | 1014.7 hPa | 0 mm | - | 191 W/m² | - |
* Rain latest hour (hover to see other rain measurements)
** Current wind speed in m/s (hover to see current wind gust speed)